Regional Weather Roundup
Issued by NWS

Home | Current Version | Previous Version | Graphics & Text | Print | Product List | Glossary On
Versions: 1 2 3 4 5 6 7 8 9 10 11 12 13 14 15 16 17 18 19 20 21 22 23 24 25 26 27 28 29 30 31 32 33 34 35 36 37 38 39 40 41 42 43 44 45 46 47 48 49 50
000
ASUS43 KMKX 281424
RWRWI

WISCONSIN REGIONAL WEATHER ROUNDUP
NATIONAL WEATHER SERVICE MILWAUKEE/SULLIVAN WI
900 AM CDT THU MAY 28 2015

NOTE: "FAIR" INDICATES FEW OR NO CLOUDS BELOW 12,000 FEET WITH NO
SIGNIFICANT WEATHER AND/OR OBSTRUCTIONS TO VISIBILITY.

WIZ001-002-006>008-014>016-023>028-281500-
NORTHWEST WISCONSIN

CITY           SKY/WX    TMP DP  RH WIND       PRES   REMARKS
SUPERIOR ARPT  CLOUDY    44  40  86 NE13G21   30.13S
ASHLAND        SUNNY     52  47  83 NE8       30.12F
HAYWARD        SUNNY     68  58  70 SW3       30.08F
SIREN          MOSUNNY   66  58  73 CALM      30.07S
CUMBERLAND     SUNNY     66  57  72 S6        30.10R
RICE LAKE      SUNNY     68  57  69 SE5       30.11S
CHETEK         SUNNY     69  61  75 CALM      30.10S
LADYSMITH      SUNNY     67  61  80 S5        30.13S
EAU CLAIRE     SUNNY     71  59  65 S6        30.10S
MENOMONIE      SUNNY     70  62  76 SE5       30.10S
NEW RICHMOND   SUNNY     70  57  62 S8        30.09R
OSCEOLA        SUNNY     70  58  63 S6        30.10R
$$

WIZ003>005-009-010-017-018-281500-
NORTH CENTRAL WISCONSIN

CITY           SKY/WX    TMP DP  RH WIND       PRES   REMARKS
MANITOWISH WTR SUNNY     65  60  85 CALM      30.13S
ARBOR VITAE    SUNNY     67  60  77 S3        30.13S
WOODRUFF       SUNNY     67  60  77 S3        30.13S
RHINELANDER    SUNNY     67  59  75 SW3       30.15S
EAGLE RIVER    SUNNY     65  58  77 CALM      30.14S
LAND O LAKES   SUNNY     67  56  69 S5        30.15S
PHILLIPS       SUNNY     69  60  75 S3        30.12S
TOMAHAWK       SUNNY     65  59  80 CALM      30.15R
MEDFORD        SUNNY     67  60  78 S5        30.14S
MERRILL        SUNNY     65  61  87 CALM      30.15R
$$

WIZ029-030-035-036-043>047-281500-
CENTRAL WISCONSIN

CITY           SKY/WX    TMP DP  RH WIND       PRES   REMARKS
WAUSAU         SUNNY     66  59  78 VRB6      30.13R
MOSINEE        SUNNY     64  63  94 S5        30.16R
MARSHFIELD     SUNNY     69  60  73 SW7       30.15R
STEVENS POINT  SUNNY     66  59  77 S5        30.16R
WAUPACA        SUNNY     69  64  84 CALM      30.16R
WAUTOMA        SUNNY     70  63  78 SW6       30.17R
WISC RAPIDS    SUNNY     70  60  70 SW7       30.17R
CAMP DOUGLAS   SUNNY     73  64  73 SW6       30.15R
$$

WIZ011>013-019>022-031-037>040-048>050-281500-
NORTHEAST WISCONSIN

CITY           SKY/WX    TMP DP  RH WIND       PRES   REMARKS
ANTIGO         SUNNY     67  61  81 CALM      30.16R
SHAWANO        SUNNY     66  60  81 CALM      30.15S
OCONTO         SUNNY     66  61  82 CALM      30.15R
STURGEON BAY   SUNNY     66  57  72 CALM      30.18S
GREEN BAY      SUNNY     69  61  75 CALM      30.15S
MANITOWOC      SUNNY     65  59  81 SE7       30.16S
APPLETON       SUNNY     70  57  64 SW8       30.16R
CLINTONVILLE   SUNNY     64  61  88 CALM      30.15R
OSHKOSH        SUNNY     73  60  63 VRB5      30.16R
$$

WIZ032>034-041-042-053>061-281500-
SOUTHWEST WISCONSIN

CITY           SKY/WX    TMP DP  RH WIND       PRES   REMARKS
LA CROSSE      SUNNY     71  59  65 S8        30.14R
SPARTA         SUNNY     72  57  60 SW5       30.15S
VIROQUA        SUNNY     71  60  68 SW6       30.17S
BOSCOBEL       SUNNY     68  61  78 CALM      30.17S
PRAIRIE DU CHI SUNNY     70  58  65 S6        30.16S
PLATTEVILLE    SUNNY     71  61  70 SW5       30.19S
$$

WIZ056-057-062-063-064-067-068-281500-
SOUTH CENTRAL WISCONSIN

CITY           SKY/WX    TMP DP  RH WIND       PRES   REMARKS
REEDSBURG      SUNNY     71  61  70 SW6       30.17R
BARABOO/DELLS  SUNNY     71  58  64 SW9       30.18R
LONE ROCK      SUNNY     71  59  65 CALM      30.18R
MINERAL POINT  SUNNY     72  59  64 S3        30.20R
MADISON        MOSUNNY   72  57  59 SW6       30.19R
MIDDLETON      SUNNY     73  56  55 SW10      30.20R
WATERTOWN      SUNNY    N/A N/A N/A SW8       30.19R
MONROE         SUNNY     72  59  64 S7        30.20R
JANESVILLE     SUNNY     72  57  60 SW8       30.20R
$$

WIZ051-052-058>065-066-070>072-281500-
SOUTHEAST WISCONSIN

CITY           SKY/WX    TMP DP  RH WIND       PRES   REMARKS
MILWAUKEE      MOSUNNY   72  56  57 W10       30.19R
WAUKESHA       SUNNY     70  57  64 SW7       30.21R
MILWAUKEE/TIMM SUNNY     72  55  56 SW12      30.20R
RACINE         SUNNY     72  58  61 SW9       30.22R
BURLINGTON     SUNNY     70  58  65 SW6       30.21R
KENOSHA        SUNNY     72  61  68 SW6       30.21R
FOND DU LAC    SUNNY     71  60  68 SW12      30.17R
SHEBOYGAN      SUNNY     73  61  65 SW7       30.16R
WEST BEND      SUNNY     72  55  56 SW6       30.19R
JUNEAU         SUNNY     69  60  74 SW10      30.20R
$$

LSZ147-162-281500-
LAKE SUPERIOR

STATION/POSITION TIME  TEMP    WIND        PRES    WAVE
                       AIR SEA DIR/SP/G            HT/PER
                 (UTC) (F)     (DEG/KT/KT) (MB)    (FT/S)
W MID LAKE BUOY  1350   38 37   50/ 16/ 17   N/A     2/ 4
DEVILS ISLAND    1400   40      60/ 15/ 17   N/A
PORT WING        1300   42      30/ 15/ 17   N/A
$$

LMZ867-665-643>646-281500-
LAKE MICHIGAN

STATION/POSITION TIME  TEMP    WIND        PRES    WAVE
                       AIR SEA DIR/SP/G            HT/PER
                 (UTC) (F)     (DEG/KT/KT) (MB)    (FT/S)
CHAMBERS ISLAND  1300   56      20/  4/  5   N/A
N MID LAKE BUOY  1350   40 37  200/  4/  4   N/A     1/ 4
NORTHPORT PIER   1300   53      70/  2/  2   N/A
SISTER BAY       1348   59        CALM       N/A
ALGOMA LAKESHORE 1308             CALM       N/A
KEWAUNEE LAKESHO 1300   51      90/  3/  5   N/A
SHEBOYGAN LAKESH 1400   50     170/  8/  9   N/A
PORT WASHINGTON  1300   57     170/  1/ 12   N/A
ATWATER BUOY     1330   53 48  170/  6/  6   N/A
MILWAUKEE LAKESH 1300   60     140/  5/  7   N/A
S MID LAKE BUOY  1350   45 38  200/ 10/ 12   N/A     0
KENOSHA   LAKESH 1300   63     220/  5/ 10   N/A
$$

TC  - TEMPERATURE IN CELSIUS
VSB - VISIBILITY IN STATUTE MILES
WCI - WIND CHILL INDEX
HX  - HEAT INDEX



USA.gov is the U.S. government's official web portal to all federal, state and local government web resources and services.